User: anonymous
Location: Unspecified
(0.0000°N, 0.0000°E)
Time: 08:33:09
(UTC+02:00)
Language:

ARIANE 5 R/B - Orbit

View from above orbital plane
View from above orbital plane
View from above satellite
View from above satellite

Ground track
Ground track

The orbit data is extracted from the following two-line orbital elements,

1 27387U 02009B   14212.81125631  .00000086  00000-0  43988-4 0  2279
2 27387 098.3165 174.0175 0033055 037.8924 344.1954 14.35724452650676
Epoch (UTC): 31 July 2014 19:28:12
Eccentricity: 0.0033055
inclination: 98.3165°
perigee height: 749 km
apogee height: 796 km
right ascension of ascending node: 174.0175°
argument of perigee: 37.8924°
revolutions per day: 14.35724452
mean anomaly at epoch: 344.1954°
orbit number at epoch: 65067

The dashed part of the orbit path shows where the satellite is in the earth's shadow,  

DLR